[[[{"header":{"parameterUnit":"kt","parameterCategory":2,"dx":1,"dy":1,"la1":30.253999710083008,"la2":30.299108505249023,"lo1":-89.0895004272461,"lo2":-89.04439544677734,"nx":28,"ny":28,"refTime":"2022-10-28T21:00:00:Z","depth":0,"parameterNumber":1,"parameterNumberName":"U-component_of_WINDS"},"data":[-5.3552,-5.3695,-5.3706,-5.3877,-5.3917,-5.4037,-5.4085,-5.4148,-5.4202,-5.4352,-5.4441,-5.4471,-5.4533,-5.4647,-5.4748,-5.476,-5.4804,-5.4847,-5.4855,-5.4643,-5.4615,-5.4588,-5.4554,-5.4856,-5.4856,-5.5073,-5.5075,-5.5077,-5.3404,-5.3443,-5.3535,-5.3632,-5.3713,-5.3678,-5.3754,-5.3825,-5.3935,-5.4003,-5.4089,-5.4223,-5.4332,-5.4381,-5.449,-5.4563,-5.4555,-5.4592,-5.4589,-5.46,-5.4374,-5.4337,-5.4597,-5.4597,-5.4597,-5.4597,-5.4597,-5.4597,-5.3138,-5.3222,-5.3285,-5.3385,-5.3437,-5.3503,-5.3588,-5.3618,-5.3711,-5.382,-5.3816,-5.3943,-5.4015,-5.4151,-5.42,-5.4303,-5.4265,-5.4311,-5.4323,-5.4335,-5.4348,-5.4041,-5.4322,-5.4321,-5.4321,-5.432,-5.432,0,-5.2946,-5.2949,-5.3035,-5.3127,-5.3201,-5.3273,-5.3342,-5.3395,-5.3406,-5.3483,-5.3596,-5.3664,-5.38,-5.3911,-5.4014,-5.4056,-5.4032,-5.403,-5.4062,-5.4067,-5.4059,-5.407,-5.3703,-5.4022,-5.4019,-5.4017,-5.4016,-5.4015,-5.2681,-5.2776,-5.2846,-5.2906,-5.2945,-5.3043,-5.3104,-5.3105,-5.3171,-5.3258,-5.3336,-5.3444,-5.3531,-5.3714,-5.3754,-5.3857,-5.3847,-5.3968,-5.3862,-5.3864,-5.3854,-5.3849,-5.3861,-5.3989,-5.3992,-5.3995,-5.3997,0,-5.2532,-5.2545,-5.2696,-5.2755,-5.2773,-5.2875,-5.2928,-5.3014,-5.3033,-5.3156,-5.3184,-5.3217,-5.333,-5.3348,-5.3481,-5.3488,-5.3669,-5.3653,-5.3645,-5.3644,-5.3757,-5.3748,-5.4112,-5.4163,-5.3845,-5.3848,-5.3851,0,-5.2313,-5.2438,-5.2451,-5.2537,-5.2678,-5.2674,-5.2815,-5.2845,-5.2901,-5.2997,-5.2967,-5.3059,-5.3067,-5.3163,-5.3174,-5.3323,-5.3347,-5.3363,-5.3365,-5.3367,-5.3366,-5.3406,-5.3392,-5.3359,-5.3357,-5.3356,-5.3354,0,-5.2079,-5.223,-5.237,-5.2407,-5.2482,-5.2549,-5.2585,-5.2646,-5.2706,-5.2787,-5.2827,-5.2923,-5.2976,-5.3054,-5.3065,-5.2994,-5.3247,-5.3151,-5.3264,-5.3264,-5.332,-5.3317,-5.3633,-5.3352,-5.3351,-5.3351,-5.335,0,-5.1904,-5.1979,-5.2178,-5.224,-5.228,-5.2373,-5.2464,-5.2546,-5.2614,-5.2624,-5.2688,-5.2671,-5.2797,-5.2702,-5.288,-5.2784,-5.2841,-5.2866,-5.2874,-5.2889,-5.2781,-5.2961,-5.3258,-5.3291,-5.2901,-5.2898,-5.2894,0,-5.1636,-5.1838,-5.1833,-5.2023,-5.2119,-5.2077,-5.2181,-5.2239,-5.2261,-5.2349,-5.2374,-5.2475,-5.2406,-5.244,-5.2526,-5.2557,-5.2683,-5.2541,-5.2678,-5.2683,-5.2663,-5.2936,-5.2976,-5.319,-5.2847,-5.2852,-5.2855,0,-5.1429,-5.1511,-5.1545,-5.1587,-5.1658,-5.1738,-5.1856,-5.1952,-5.2011,-5.2078,-5.2181,-5.2321,-5.2277,-5.2332,-5.2327,-5.2416,-5.2598,-5.2356,-5.2358,-5.2402,-5.2822,-5.2861,-5.2896,-5.2577,-5.2583,-5.2587,-5.2817,0,-5.1168,-5.1267,-5.1358,-5.1446,-5.1509,-5.1626,-5.1636,-5.1702,-5.1689,-5.1707,-5.1856,-5.1908,-5.2008,-5.205,-5.2039,-5.2233,-5.2204,-5.2154,-5.2063,-5.224,-5.2317,-5.2348,-5.1948,-5.1946,-5.1944,-5.1942,0,0,-5.091,-5.1051,-5.1039,-5.1149,-5.1202,-5.1153,-5.1278,-5.1324,-5.1417,-5.1457,-5.1405,-5.161,-5.1654,-5.1835,-5.1891,-5.193,-5.1968,-5.1904,-5.2155,-5.2178,-5.22,-5.2282,-5.2314,-5.1938,-5.1937,-5.1936,-5.1936,0,-5.0815,-5.0852,-5.0972,-5.1018,-5.1083,-5.1094,-5.1123,-5.1181,-5.1198,-5.134,-5.1301,-5.1392,-5.1553,-5.1607,-5.1655,-5.1882,-5.185,-5.1912,-5.2031,-5.2132,-5.2159,-5.2182,-5.2268,-5.2298,-5.193,-5.1931,-5.1931,0,-5.0615,-5.0654,-5.0711,-5.0821,-5.0864,-5.0962,-5.0868,-5.0974,-5.1048,-5.0992,-5.1134,-5.1164,-5.1235,-5.1402,-5.1477,-5.1433,-5.1742,-5.1644,-5.1659,-5.1668,-5.1767,-5.1799,-5.1827,-5.1454,-5.1452,-5.1451,0,0,-5.0533,-5.0623,-5.0664,-5.0801,-5.0831,-5.0847,-5.0899,-5.089,-5.095,-5.0975,-5.1011,-5.1075,-5.117,-5.1232,-5.1321,-5.1501,-5.1519,-5.1585,-5.1607,-5.1626,-5.1645,-5.1749,-5.1781,-5.1444,-5.1444,-5.1444,0,0,-5.0494,-5.0545,-5.0518,-5.0678,-5.0735,-5.0786,-5.0872,-5.0842,-5.0921,-5.0909,-5.0901,-5.0917,-5.1073,-5.1104,-5.1016,-5.129,-5.1199,-5.122,-5.1263,-5.1292,-5.1314,-5.1304,-5.0929,0,0,0,0,0,-5.04,-5.0538,-5.0513,-5.0541,-5.0679,-5.0799,-5.0818,-5.0811,-5.0747,-5.0817,-5.0843,-5.0802,-5.1056,-5.0977,-5.1007,-5.1106,-5.136,-5.1375,-5.1389,-5.1487,-5.1517,-5.1542,0,0,0,0,0,0,-5.041,-5.0444,-5.0509,-5.0566,-5.0597,-5.0794,-5.0685,-5.0687,-5.074,-5.073,-5.0798,-5.0804,-5.0804,-5.0962,-5.0989,-5.1083,-5.0919,-5.1366,-5.1379,-5.139,-5.1497,-5.1521,-5.1542,0,0,0,0,0,-5.0419,-5.0446,-5.0668,-5.0564,-5.0591,-5.0616,-5.068,-5.0681,-5.0722,-5.0761,-5.0766,-5.0712,-5.0807,-5.0829,-5.0978,-5.1071,-5.09,-5.0911,-5.1374,-5.1384,-5.1393,-5.1509,0,0,0,0,0,0,-5.0425,-5.0449,-5.0673,-5.0681,-5.051,-5.0605,-5.0619,-5.0675,-5.075,-5.0756,-5.0674,-5.0665,-5.081,-5.0827,-5.0845,-5.1067,-5.0885,-5.0895,-5.0902,-5.1382,-5.139,-5.1397,0,0,0,0,0,0,-5.0435,-5.0457,-5.0678,-5.0609,-5.0609,-5.0595,-5.0608,-5.0732,-5.0752,-5.0658,-5.0653,-5.0669,-5.0785,-5.0827,-5.084,-5.1035,-5.0873,-5.0883,-5.089,-5.0894,-5.1388,-5.1394,0,0,0,0,0,0,-5.0444,-5.0463,-5.0607,-5.0607,-5.0607,-5.0699,-5.0705,-5.0849,-5.0688,-5.0656,-5.0674,-5.0667,-5.0786,-5.08,-5.0837,-5.1027,-5.1033,-5.0873,-5.088,-5.0885,-5.0888,0,0,0,0,0,0,0,-5.0451,-5.0326,-5.0624,-5.0605,-5.0605,-5.0757,-5.076,-5.0762,-5.0687,-5.0681,-5.0675,-5.067,-5.0817,-5.0827,-5.0838,-5.102,0,0,-5.0872,-5.0877,0,0,0,0,0,0,0,0,-5.0318,-5.0324,-5.0624,-5.0626,-5.0628,-5.0758,-5.0759,-5.0761,-5.0686,-5.0681,-5.0677,-5.0672,-5.0819,-5.0828,-5.0837,0,0,0,0,0,0,0,0,0,0,0,0,0,0,0,-5.0625,-5.0626,0,-5.0758,-5.0759,-5.0761,-5.0685,-5.0681,-5.0677,-5.0674,-5.0822,-5.0829,-5.0836,0,0,0,0,0,0,0,0,0,0,0,0,0,0,0,0,0,0,0,0,0,0,0,0,0,0,0,0,0,0,0,0,0,0,0,0,0,0,0,0,0,0,0,0,0,0,0,0,0,0,0,0,0,0,0,0,0,0,0,0,0,0,0,0,0,0,0,0,0]}],[{"header":{"parameterUnit":"kt","parameterCategory":2,"dx":1,"dy":1,"la1":30.253999710083008,"la2":30.299108505249023,"lo1":-89.0895004272461,"lo2":-89.04439544677734,"nx":28,"ny":28,"refTime":"2022-10-28T21:00:00:Z","depth":0,"parameterNumber":2,"parameterNumberName":"V-component_of_WINDS"},"data":[1.2537,1.2551,1.2614,1.2659,1.2723,1.2764,1.2799,1.2851,1.2908,1.2965,1.3008,1.3073,1.3155,1.3222,1.3272,1.33,1.3315,1.3275,1.3313,1.3441,1.3462,1.3483,1.3483,1.3278,1.3278,1.3172,1.317,1.317,1.2626,1.269,1.2732,1.2816,1.2853,1.2931,1.3003,1.3028,1.3063,1.3134,1.318,1.3235,1.3286,1.3384,1.3444,1.3451,1.349,1.3462,1.3461,1.3472,1.3612,1.3611,1.343,1.343,1.343,1.343,1.343,1.343,1.2803,1.2809,1.2897,1.2944,1.3003,1.3059,1.3075,1.3155,1.3197,1.3267,1.3336,1.3376,1.3458,1.3561,1.3611,1.3644,1.3686,1.3675,1.3672,1.3666,1.3651,1.3792,1.3658,1.3659,1.366,1.366,1.3661,0,1.2952,1.3005,1.305,1.3113,1.3151,1.3207,1.3268,1.328,1.3413,1.3442,1.349,1.3527,1.3602,1.3653,1.3723,1.3779,1.386,1.3876,1.3868,1.3833,1.3794,1.3812,1.4033,1.3878,1.388,1.3882,1.3883,1.3884,1.3133,1.3133,1.3256,1.3278,1.3328,1.3363,1.3398,1.3515,1.3546,1.3639,1.3638,1.3692,1.374,1.3805,1.3897,1.3953,1.3992,1.3926,1.4001,1.3969,1.3988,1.3985,1.3985,1.3907,1.3904,1.3901,1.39,0,1.3228,1.3332,1.3353,1.3475,1.3505,1.3499,1.3603,1.3614,1.3691,1.3716,1.3729,1.3848,1.3892,1.3997,1.4068,1.4121,1.411,1.4149,1.4082,1.4094,1.4043,1.4045,1.3865,1.3847,1.4065,1.4062,1.4061,0,1.3421,1.3417,1.3572,1.3578,1.3578,1.3696,1.3692,1.3757,1.3831,1.3852,1.3963,1.398,1.4112,1.4144,1.4222,1.4233,1.4247,1.4287,1.4307,1.4275,1.4269,1.4289,1.4297,1.4356,1.4357,1.4358,1.4358,0,1.3556,1.3635,1.3647,1.3682,1.381,1.3813,1.3867,1.395,1.3982,1.4041,1.4063,1.4123,1.4154,1.4198,1.4297,1.4344,1.4314,1.4398,1.4354,1.4351,1.4338,1.4337,1.4155,1.4359,1.436,1.436,1.436,0,1.3727,1.3785,1.3787,1.3897,1.3912,1.392,1.3987,1.4018,1.4098,1.4148,1.4195,1.428,1.43,1.4376,1.4404,1.4437,1.4461,1.4503,1.4501,1.4506,1.4587,1.4466,1.4286,1.4269,1.4515,1.4516,1.4517,0,1.3852,1.3882,1.3984,1.3983,1.4011,1.4133,1.4145,1.4212,1.428,1.4313,1.4389,1.4425,1.4505,1.453,1.4531,1.4609,1.4567,1.4618,1.4661,1.4661,1.4632,1.4469,1.4414,1.4315,1.4535,1.4534,1.4532,0,1.3961,1.4119,1.4111,1.4155,1.4264,1.4288,1.4301,1.4364,1.438,1.4445,1.4457,1.4513,1.4574,1.4615,1.4691,1.4686,1.4599,1.4752,1.4755,1.4718,1.4554,1.4502,1.4485,1.4651,1.4649,1.4647,1.4546,0,1.419,1.4219,1.4205,1.4298,1.4334,1.4339,1.4451,1.4474,1.4543,1.4614,1.4636,1.4718,1.478,1.479,1.4857,1.4813,1.4836,1.4901,1.4979,1.4872,1.4841,1.4829,1.5016,1.5019,1.5021,1.5023,0,0,1.4282,1.4326,1.4437,1.4453,1.449,1.4616,1.4612,1.4663,1.476,1.4782,1.4828,1.4916,1.498,1.4993,1.4969,1.4995,1.4996,1.5029,1.4923,1.4911,1.4901,1.4866,1.4851,1.5028,1.5029,1.503,1.503,0,1.4388,1.4453,1.4449,1.4506,1.4595,1.4671,1.467,1.478,1.4825,1.4847,1.4949,1.4975,1.5042,1.5096,1.5132,1.5032,1.5105,1.5043,1.495,1.4944,1.4929,1.4916,1.4878,1.4864,1.5037,1.5036,1.5036,0,1.4513,1.4595,1.4605,1.4695,1.4754,1.478,1.4891,1.4913,1.4933,1.5068,1.5087,1.5147,1.5229,1.5228,1.5232,1.5273,1.5197,1.5242,1.5229,1.523,1.523,1.5211,1.5195,1.5408,1.5409,1.5409,0,0,1.4588,1.4617,1.474,1.4726,1.4756,1.4869,1.4894,1.4965,1.5037,1.5065,1.5143,1.5209,1.5249,1.5273,1.5317,1.53,1.5325,1.5283,1.5265,1.5251,1.5244,1.5239,1.5221,1.5412,1.5413,1.5413,0,0,1.4624,1.4767,1.4825,1.4822,1.4888,1.5007,1.4994,1.5067,1.5117,1.5128,1.5249,1.5272,1.5273,1.5327,1.5357,1.5346,1.5422,1.5417,1.5309,1.5289,1.5272,1.5257,1.548,0,0,0,0,0,1.4789,1.475,1.4801,1.4817,1.4931,1.4979,1.4995,1.5094,1.5146,1.5133,1.521,1.5288,1.5369,1.5398,1.5411,1.5376,1.5453,1.5446,1.5439,1.5297,1.5275,1.5256,0,0,0,0,0,0,1.4797,1.4816,1.4802,1.4918,1.4945,1.4982,1.5091,1.5117,1.515,1.5164,1.5271,1.5292,1.5376,1.5398,1.5408,1.5372,1.5476,1.545,1.5444,1.5439,1.529,1.5271,1.5255,0,0,0,0,0,1.4803,1.4819,1.4975,1.492,1.4943,1.5066,1.5094,1.5116,1.5143,1.5262,1.5285,1.5215,1.5373,1.5389,1.5404,1.5365,1.547,1.5473,1.5446,1.5442,1.5437,1.5281,0,0,0,0,0,0,1.4808,1.4839,1.4982,1.4993,1.4942,1.5066,1.5088,1.5115,1.524,1.5263,1.5211,1.5221,1.537,1.5383,1.5394,1.5357,1.5464,1.5468,1.547,1.5443,1.5439,1.5436,0,0,0,0,0,0,1.4832,1.4847,1.4987,1.501,1.5024,1.5065,1.5085,1.5113,1.524,1.5183,1.5196,1.5214,1.5352,1.5378,1.5387,1.5427,1.546,1.5464,1.5466,1.5468,1.544,1.5437,0,0,0,0,0,0,1.484,1.4854,1.5008,1.5018,1.5031,1.5159,1.5091,1.5202,1.526,1.5176,1.5268,1.5272,1.5345,1.5357,1.5382,1.5417,1.5424,1.546,1.5463,1.5464,1.5465,0,0,0,0,0,0,0,1.4847,1.4732,1.4918,1.5026,1.5037,1.5092,1.5095,1.5098,1.5261,1.5264,1.5267,1.527,1.544,1.5444,1.5448,1.5409,0,0,1.546,1.5461,0,0,0,0,0,0,0,0,1.4728,1.4731,1.4919,1.4921,1.4923,1.5092,1.5094,1.5097,1.5261,1.5264,1.5267,1.5269,1.5441,1.5444,1.5447,0,0,0,0,0,0,0,0,0,0,0,0,0,0,0,1.4919,1.4921,0,1.5092,1.5094,1.5096,1.5262,1.5264,1.5266,1.5268,1.5442,1.5444,1.5447,0,0,0,0,0,0,0,0,0,0,0,0,0,0,0,0,0,0,0,0,0,0,0,0,0,0,0,0,0,0,0,0,0,0,0,0,0,0,0,0,0,0,0,0,0,0,0,0,0,0,0,0,0,0,0,0,0,0,0,0,0,0,0,0,0,0,0,0,0]}]]]